Location: Unspecified
(0.0000°N, 0.0000°E)
Time: 17:34:56
(UTC+00:00)

ARIANE 2 DEB - Pass Details

Date: 19 December 2025
Orbit: 910 x 35590 km, 6.7° (Epoch: 29 August)

Event Time Altitude Azimuth Distance (km) Brightness Sun altitude
Rises 16:27:24 0° 269° (W) 12,215 ? 20.5°
Reaches altitude 10° 16:34:44 10° 268° (W) 13,049 ? 18.9°
Enters shadow 01:56:31 23° 268° (W) 10,151 ? -52.8°
Exits shadow 02:24:56 24° 71° (ENE) 2,581 ? -47.2°
Drops below altitude 10° 02:26:41 10° 75° (ENE) 3,158 ? -46.9°
Sets 02:28:24 0° 78° (ENE) 3,832 ? -46.5°
